Chillicothe, MO

4:04 PM CST on November 21, 2017 (GMT -0600)
Chillicothe

Weather History for KCDJ - December, 2012

Change the Weather History Date:

Thursday, December 13, 2012

  Actual Average (KIRK) Record (KIRK)
Temperature  
Mean Temperature 42 °F -  
Max Temperature 55 °F 37 °F 66 °F (1948)
Min Temperature 30 °F 20 °F -5 °F (1961)
Degree Days  
Heating Degree Days 22    
Moisture  
Dew Point 21 °F    
Average Humidity 49    
Maximum Humidity 79    
Minimum Humidity 28    
Precipitation  
Precipitation 0.00 in - - ()
Sea Level Pressure  
Sea Level Pressure 30.16 in    
Wind  
Wind Speed 7 mph (South)    
Max Wind Speed 15 mph    
Max Gust Speed 22 mph    
Averages and records for this station are not official NWS values.
T = Trace of Precipitation, MM = Missing Value Source: NWS Daily Summary

Daily Weather History Graph

Daily Weather History Graph

Search for Another Location

Airport or City:

Trip Planner

Search our weather history database for the weather conditions in past years. The results will help you decide how hot, cold, wet, or windy it might be!

Date:

Astronomy

Dec. 13, 2012 Rise Set
Actual Time 7:27 AM CST 4:50 PM CST
Civil Twilight 6:57 AM CST 5:20 PM CST
Nautical Twilight 6:23 AM CST 5:54 PM CST
Astronomical Twilight 5:50 AM CST 6:27 PM CST
Moon 7:36 AM CST (12/13) 5:33 PM CST (12/13)
Length of Visible Light 10h 23m
Length of Day
9h 22m
New Moon, 0% of the Moon is Illuminated
Dec 13
New Moon
Dec 19
First Quarter
Dec 28
Full
Jan 4
Last Quarter
Jan 11
New

Hourly Weather History & Observations

Time (CST) Temp. Windchill Dew Point Humidity Pressure Visibility Wind Dir Wind Speed Gust Speed Precip Events Conditions
12:52 AM 35.1 °F 29.3 °F 18.0 °F 50% 30.20 in - SSE 6.9 mph - N/A   Unknown
1:52 AM 34.0 °F 28.0 °F 18.0 °F 52% 30.20 in - SSE 6.9 mph - N/A   Unknown
2:52 AM 33.1 °F 26.9 °F 18.0 °F 54% 30.20 in - SSE 6.9 mph - N/A   Unknown
3:52 AM 30.9 °F 25.2 °F 18.0 °F 59% 30.19 in - SSE 5.8 mph - N/A   Unknown
4:52 AM 33.1 °F 26.9 °F 18.0 °F 54% 30.18 in - SSE 6.9 mph - N/A   Unknown
5:52 AM 35.1 °F 26.9 °F 18.0 °F 50% 30.17 in - South 11.5 mph - N/A   Unknown
6:52 AM 37.9 °F 30.9 °F 18.0 °F 45% 30.17 in - South 10.4 mph - N/A   Unknown
7:52 AM 37.0 °F 31.0 °F 18.0 °F 46% 30.18 in - SSW 8.1 mph - N/A   Unknown
8:52 AM 39.0 °F 31.4 °F 18.0 °F 43% 30.19 in - South 12.7 mph - N/A   Unknown
9:52 AM 41.0 °F 34.3 °F 19.0 °F 41% 30.19 in - South 11.5 mph - N/A   Unknown
10:52 AM 45.0 °F 38.9 °F 19.9 °F 37% 30.19 in - SSW 12.7 mph 21.9 mph N/A   Unknown
11:52 AM 48.0 °F - 21.0 °F 34% 30.17 in - SSW 15.0 mph - N/A   Unknown
12:52 PM 52.0 °F - 21.9 °F 31% 30.14 in - SW 9.2 mph - N/A   Unknown
1:52 PM 54.0 °F - 21.9 °F 29% 30.12 in - South 10.4 mph - N/A   Unknown
2:52 PM 55.0 °F - 21.9 °F 28% 30.11 in - South 9.2 mph - N/A   Unknown
3:52 PM 55.0 °F - 23.0 °F 29% 30.11 in - SSW 10.4 mph - N/A   Unknown
4:52 PM 51.1 °F - 23.0 °F 33% 30.11 in - South 4.6 mph - N/A   Unknown
5:52 PM 45.0 °F - 23.0 °F 42% 30.12 in - Calm Calm - N/A   Unknown
6:52 PM 36.0 °F - 23.0 °F 59% 30.14 in - Calm Calm - N/A   Unknown
7:52 PM 33.1 °F - 21.9 °F 64% 30.16 in - Calm Calm - N/A   Unknown
8:52 PM 32.0 °F - 23.0 °F 69% 30.15 in - Calm Calm - N/A   Unknown
9:52 PM 30.9 °F - 23.0 °F 72% 30.16 in - Calm Calm - N/A   Unknown
10:52 PM 30.9 °F - 21.9 °F 69% 30.16 in - Calm Calm - N/A   Unknown
11:52 PM 30.0 °F - 24.1 °F 79% 30.16 in - Calm Calm - N/A   Unknown